When you browse on this site, cookies collect data to enhance your experience and personalize the content and advertising you see.
Visit our Privacy Policy to learn more. By continuing to use the site, you agree to this use of cookies and data.
  • In Slovakia
  • List of Countries
  • For 7 days
  • Water Temperature
  • Satellite Maps
  • Weather Map
  • Weather Widgets
  • user-avatar
    Login

    Hourly Weather Rostock

    Today, 16 January, Wednesday

    Time Temperature Precipitation Wind Pressure Humidity
    00:00 +5°C° 0.7 mm 8 mps 752 mmHg 91%
    01:00 +5°C° 0 mm 6 mps 752 mmHg 92%
    02:00 +5°C° 0.2 mm 7 mps 752 mmHg 90%
    03:00 +5°C° 0.2 mm 9 mps 752 mmHg 87%
    04:00 +5°C° 0.2 mm 10 mps 752 mmHg 85%
    05:00 +5°C° 0 mm 9 mps 752 mmHg 86%
    06:00 +5°C° 0 mm 9 mps 752 mmHg 86%
    07:00 +4°C° 0 mm 6 mps 752 mmHg 88%
    08:00 +4°C° 0.1 mm 6 mps 752 mmHg 88%
    09:00 +4°C° 0.1 mm 7 mps 752 mmHg 88%
    10:00 +4°C° 0.1 mm 7 mps 752 mmHg 87%
    11:00 +5°C° 0 mm 7 mps 752 mmHg 87%
    12:00 +5°C° 0 mm 7 mps 751 mmHg 86%
    13:00 +5°C° 0 mm 6 mps 751 mmHg 86%
    14:00 +5°C° 0.1 mm 7 mps 750 mmHg 86%
    15:00 +5°C° 0.1 mm 8 mps 750 mmHg 85%
    16:00 +5°C° 0.1 mm 9 mps 749 mmHg 85%
    17:00 +3°C° 0 mm 9 mps 749 mmHg 84%
    18:00 +3°C° 0 mm 9 mps 749 mmHg 83%
    19:00 +3°C° 0 mm 9 mps 748 mmHg 83%
    20:00 +2°C° 0.4 mm 9 mps 748 mmHg 83%
    21:00 +2°C° 0.4 mm 9 mps 747 mmHg 83%
    22:00 +2°C° 0.4 mm 9 mps 747 mmHg 84%
    23:00 +2°C° 0.3 mm 9 mps 746 mmHg 84%

    Tomorrow, 17 January, Thursday

    Time Temperature Precipitation Wind Pressure Humidity
    00:00 +2°C° 0.3 mm 9 mps 745 mmHg 84%
    01:00 +2°C° 0.3 mm 9 mps 745 mmHg 84%
    02:00 +2°C° 0.2 mm 9 mps 744 mmHg 84%
    03:00 +2°C° 0.2 mm 9 mps 744 mmHg 85%
    04:00 +2°C° 0.2 mm 9 mps 744 mmHg 85%
    05:00 +2°C° 0.2 mm 8 mps 744 mmHg 85%
    06:00 +2°C° 0.2 mm 8 mps 744 mmHg 85%
    07:00 +1°C° 0.2 mm 8 mps 744 mmHg 85%
    08:00 +1°C° 0 mm 8 mps 744 mmHg 84%
    09:00 +1°C° 0 mm 9 mps 744 mmHg 82%
    10:00 +1°C° 0 mm 10 mps 744 mmHg 80%
    11:00 +1°C° 0 mm 10 mps 744 mmHg 78%
    12:00 +2°C° 0 mm 10 mps 744 mmHg 75%
    13:00 +2°C° 0 mm 11 mps 744 mmHg 72%
    14:00 +2°C° 0 mm 10 mps 745 mmHg 72%
    15:00 +2°C° 0 mm 9 mps 745 mmHg 73%
    16:00 +1°C° 0 mm 8 mps 745 mmHg 73%
    17:00 +1°C° 0 mm 8 mps 746 mmHg 75%
    18:00 0°C° 0 mm 7 mps 746 mmHg 77%
    19:00 -1°C° 0 mm 7 mps 746 mmHg 79%
    20:00 -1°C° 0.1 mm 7 mps 747 mmHg 78%
    21:00 -1°C° 0.1 mm 7 mps 748 mmHg 77%
    22:00 -1°C° 0.1 mm 8 mps 749 mmHg 76%
    23:00 -2°C° 0.2 mm 8 mps 750 mmHg 76%

    Day after tomorrow, 18 January, Friday

    Time Temperature Precipitation Wind Pressure Humidity
    00:00 -2°C° 0.2 mm 8 mps 751 mmHg 75%
    01:00 -2°C° 0.2 mm 8 mps 752 mmHg 75%
    02:00 -2°C° 0.1 mm 8 mps 753 mmHg 75%
    03:00 -2°C° 0.1 mm 7 mps 754 mmHg 75%
    04:00 -3°C° 0.1 mm 7 mps 755 mmHg 75%
    05:00 -3°C° 0 mm 6 mps 756 mmHg 76%
    06:00 -2°C° 0 mm 5 mps 757 mmHg 76%
    07:00 -4°C° 0 mm 5 mps 758 mmHg 77%
    08:00 -2°C° 0 mm 4 mps 759 mmHg 76%
    09:00 -2°C° 0 mm 4 mps 759 mmHg 74%
    10:00 -2°C° 0 mm 4 mps 760 mmHg 73%
    11:00 -1°C° 0 mm 5 mps 760 mmHg 69%
    12:00 -1°C° 0 mm 6 mps 760 mmHg 66%
    13:00 -1°C° 0 mm 7 mps 761 mmHg 63%
    14:00 -1°C° 0 mm 6 mps 761 mmHg 68%
    15:00 0°C° 0 mm 5 mps 761 mmHg 73%
    16:00 0°C° 0 mm 5 mps 761 mmHg 78%
    17:00 0°C° 0.1 mm 4 mps 761 mmHg 81%
    18:00 -1°C° 0.1 mm 4 mps 761 mmHg 84%
    19:00 -1°C° 0.1 mm 4 mps 761 mmHg 87%
    20:00 -2°C° 0 mm 4 mps 762 mmHg 88%
    21:00 -1°C° 0 mm 3 mps 762 mmHg 90%
    22:00 -1°C° 0 mm 3 mps 762 mmHg 91%
    23:00 -1°C° 0 mm 3 mps 763 mmHg 92%

    19 January, Saturday

    Time Temperature Precipitation Wind Pressure Humidity
    00:00 -1°C° 0 mm 3 mps 763 mmHg 92%
    01:00 -1°C° 0 mm 3 mps 763 mmHg 93%
    02:00 -2°C° 0 mm 3 mps 763 mmHg 93%
    03:00 -2°C° 0 mm 3 mps 763 mmHg 93%
    04:00 -2°C° 0 mm 3 mps 763 mmHg 94%
    05:00 -2°C° 0 mm 3 mps 763 mmHg 94%
    06:00 -2°C° 0 mm 3 mps 763 mmHg 94%
    07:00 -2°C° 0 mm 3 mps 763 mmHg 94%
    08:00 -2°C° 0 mm 2 mps 763 mmHg 93%
    09:00 -1°C° 0 mm 2 mps 763 mmHg 92%
    10:00 -1°C° 0 mm 2 mps 763 mmHg 90%
    11:00 +1°C° 0 mm 2 mps 763 mmHg 86%
    12:00 +1°C° 0 mm 2 mps 763 mmHg 83%
    13:00 +3°C° 0 mm 1 mps 763 mmHg 79%
    14:00 +3°C° 0 mm 1 mps 763 mmHg 82%
    15:00 +2°C° 0 mm 1 mps 762 mmHg 85%
    16:00 +1°C° 0 mm 1 mps 762 mmHg 87%
    17:00 +1°C° 0 mm 1 mps 762 mmHg 88%
    18:00 +1°C° 0 mm 1 mps 762 mmHg 89%
    19:00 0°C° 0 mm 1 mps 762 mmHg 89%
    20:00 0°C° 0 mm 1 mps 762 mmHg 90%
    21:00 0°C° 0 mm 1 mps 762 mmHg 90%
    22:00 -2°C° 0 mm 2 mps 762 mmHg 90%
    23:00 -2°C° 0 mm 2 mps 762 mmHg 90%

    20 January, Sunday

    Time Temperature Precipitation Wind Pressure Humidity
    00:00 0°C° 0 mm 1 mps 762 mmHg 90%
    01:00 0°C° 0 mm 1 mps 762 mmHg 90%
    02:00 -1°C° 0 mm 1 mps 762 mmHg 89%
    03:00 -1°C° 0 mm 1 mps 762 mmHg 88%
    04:00 -1°C° 0 mm 1 mps 762 mmHg 87%
    05:00 -1°C° 0 mm 1 mps 762 mmHg 86%
    06:00 -2°C° 0 mm 0 mps 762 mmHg 85%
    07:00 -2°C° 0 mm 0 mps 762 mmHg 83%
    08:00 -1°C° 0 mm 0 mps 763 mmHg 81%
    09:00 -1°C° 0 mm 0 mps 763 mmHg 79%
    10:00 0°C° 0 mm 0 mps 763 mmHg 77%
    11:00 +1°C° 0 mm 1 mps 763 mmHg 75%
    12:00 +2°C° 0 mm 1 mps 763 mmHg 72%
    13:00 +3°C° 0 mm 1 mps 763 mmHg 70%
    14:00 +2°C° 0 mm 1 mps 764 mmHg 74%
    15:00 +1°C° 0 mm 2 mps 764 mmHg 78%
    16:00 -1°C° 0 mm 2 mps 764 mmHg 83%
    17:00 -1°C° 0 mm 2 mps 764 mmHg 85%
    18:00 -1°C° 0 mm 3 mps 764 mmHg 87%
    19:00 -1°C° 0 mm 3 mps 765 mmHg 89%
    20:00 -1°C° 0 mm 3 mps 765 mmHg 89%
    21:00 -1°C° 0 mm 3 mps 766 mmHg 89%
    22:00 -1°C° 0 mm 3 mps 766 mmHg 89%
    23:00 -2°C° 0 mm 3 mps 766 mmHg 85%

    21 January, Monday

    Time Temperature Precipitation Wind Pressure Humidity
    00:00 -2°C° 0 mm 3 mps 767 mmHg 81%
    01:00 -2°C° 0 mm 3 mps 767 mmHg 77%
    02:00 -4°C° 0 mm 3 mps 767 mmHg 75%
    03:00 -4°C° 0 mm 3 mps 767 mmHg 72%
    04:00 -3°C° 0 mm 2 mps 768 mmHg 70%
    05:00 -4°C° 0 mm 2 mps 768 mmHg 72%
    06:00 -4°C° 0 mm 2 mps 768 mmHg 73%
    07:00 -4°C° 0 mm 2 mps 768 mmHg 75%
    08:00 -2°C° 0 mm 1 mps 769 mmHg 74%
    09:00 -1°C° 0 mm 1 mps 769 mmHg 73%
    10:00 -1°C° 0 mm 1 mps 770 mmHg 73%
    11:00 0°C° 0 mm 1 mps 770 mmHg 69%
    12:00 -2°C° 0 mm 2 mps 770 mmHg 65%
    13:00 -1°C° 0 mm 2 mps 770 mmHg 62%
    14:00 -2°C° 0 mm 2 mps 769 mmHg 65%
    15:00 -2°C° 0 mm 2 mps 769 mmHg 68%
    16:00 -3°C° 0 mm 2 mps 769 mmHg 72%
    17:00 -3°C° 0 mm 2 mps 769 mmHg 74%
    18:00 -4°C° 0 mm 2 mps 768 mmHg 77%
    19:00 -5°C° 0 mm 3 mps 768 mmHg 80%
    20:00 -5°C° 0 mm 3 mps 768 mmHg 80%
    21:00 -5°C° 0 mm 3 mps 768 mmHg 80%
    22:00 -6°C° 0 mm 3 mps 768 mmHg 80%
    23:00 -6°C° 0 mm 3 mps 767 mmHg 80%
    Show more